Location: Elaina
(34.1445°N, 106.7742°W)
Time: 12:38:03
(UTC+00:00)

NOSS 3-1 (C) - Pass Details

Date: 20 March 2026
Orbit: 618 x 1583 km, 63.4° (Epoch: 10 January)

Event Time Altitude Azimuth Distance (km) Brightness Sun altitude
Rises 10:24:18 0° 344° (NNW) 3,767 6.7 -34.1°
Reaches altitude 10° 10:28:16 10° 8° (N) 3,020 6.4 -33.4°
Maximum altitude 10:32:11 15° 41° (NE) 2,852 6.6 -32.6°
Drops below altitude 10° 10:36:29 10° 73° (ENE) 3,395 7.2 -31.8°
Sets 10:41:23 0° 94° (E) 4,546 7.8 -30.9°
